| time (UTC) | temp C | wind direction | speed KPH | gust KPH | rain 1hr cm | rain 24hr cm | rain mn cm | humidity % | barometer mb |
| 20260507030027 | 10 | 173 | 4.8 | 14.5 | 0.10 | 0.94 | 0.94 | 91 | 1006.9 |
| 20260507024523 | 11 | 251 | 8.0 | 14.5 | 0.10 | 0.86 | 0.86 | 90 | 1006.8 |
| 20260507023013 | 12 | 233 | 6.4 | 14.5 | 0.18 | 0.84 | 0.84 | 92 | 1006.4 |
| 20260507021512 | 12 | 206 | 4.8 | 14.5 | 0.43 | 0.84 | 0.84 | 93 | 1006.1 |
| 20260507020012 | 13 | 322 | 3.2 | 8.0 | 0.43 | 0.84 | 0.84 | 93 | 1005.5 |
| 20260507014513 | 13 | 203 | 0.0 | 4.8 | 0.36 | 0.76 | 0.76 | 93 | 1005.5 |
| 20260507013014 | 14 | 211 | 3.2 | 14.5 | 0.25 | 0.66 | 0.66 | 92 | 1005.5 |
| 20260507011510 | 15 | 140 | 3.2 | 8.0 | 0.00 | 0.41 | 0.41 | 93 | 1004.9 |
| 20260507010010 | 15 | 149 | 3.2 | 9.7 | 0.00 | 0.41 | 0.41 | 93 | 1005.0 |
| 20260507004509 | 15 | 108 | 3.2 | 8.0 | 0.00 | 0.43 | 0.41 | 93 | 1004.9 |
| 20260507003009 | 15 | 113 | 4.8 | 9.7 | 0.00 | 0.43 | 0.41 | 93 | 1004.8 |
| 20260507001513 | 15 | 133 | 3.2 | 9.7 | 0.00 | 0.43 | 0.41 | 92 | 1004.8 |
| 20260507000008 | 15 | 107 | 4.8 | 9.7 | 0.00 | 0.43 | 0.41 | 92 | 1004.6 |
| 20260506234510 | 15 | 136 | 4.8 | 12.9 | 0.00 | 0.46 | 0.41 | 92 | 1004.5 |
| 20260506233011 | 15 | 116 | 3.2 | 8.0 | 0.00 | 0.46 | 0.41 | 92 | 1004.5 |
| 20260506231508 | 15 | 111 | 3.2 | 14.5 | 0.00 | 0.46 | 0.41 | 92 | 1004.6 |
| 20260506230017 | 15 | 121 | 4.8 | 11.3 | 0.00 | 0.46 | 0.41 | 92 | 1004.5 |
| 20260506224506 | 15 | 116 | 3.2 | 14.5 | 0.00 | 0.46 | 0.41 | 91 | 1004.5 |
| 20260506223004 | 15 | 129 | 6.4 | 16.1 | 0.00 | 0.46 | 0.41 | 91 | 1004.7 |
| 20260506221503 | 15 | 92 | 6.4 | 16.1 | 0.00 | 0.46 | 0.41 | 91 | 1004.7 |
| 20260506220005 | 15 | 159 | 6.4 | 19.3 | 0.00 | 0.46 | 0.41 | 91 | 1004.8 |
| 20260506214502 | 16 | 102 | 4.8 | 14.5 | 0.00 | 0.46 | 0.41 | 91 | 1004.7 |
| 20260506213001 | 16 | 97 | 6.4 | 19.3 | 0.00 | 0.46 | 0.41 | 91 | 1004.9 |
| 20260506211601 | 16 | 117 | 6.4 | 16.1 | 0.03 | 0.46 | 0.41 | 92 | 1004.9 |
| 20260506210106 | 16 | 128 | 4.8 | 16.1 | 0.05 | 0.46 | 0.41 | 92 | 1004.9 |
| 20260506204606 | 16 | 101 | 8.0 | 17.7 | 0.13 | 0.46 | 0.41 | 92 | 1005.0 |
| 20260506203057 | 16 | 107 | 6.4 | 20.9 | 0.15 | 0.46 | 0.41 | 92 | 1005.2 |
| 20260506201556 | 16 | 85 | 6.4 | 12.9 | 0.13 | 0.43 | 0.38 | 92 | 1005.3 |
| 20260506200055 | 16 | 93 | 4.8 | 11.3 | 0.10 | 0.41 | 0.36 | 92 | 1005.3 |
| 20260506194555 | 16 | 117 | 4.8 | 11.3 | 0.05 | 0.33 | 0.28 | 91 | 1005.6 |
| 20260506193053 | 16 | 111 | 1.6 | 9.7 | 0.05 | 0.30 | 0.25 | 92 | 1005.6 |
| 20260506191556 | 16 | 86 | 3.2 | 8.0 | 0.10 | 0.30 | 0.25 | 92 | 1005.4 |
| 20260506190049 | 16 | 99 | 1.6 | 6.4 | 0.13 | 0.28 | 0.23 | 92 | 1005.9 |
| 20260506184559 | 16 | 134 | 1.6 | 6.4 | 0.18 | 0.28 | 0.23 | 92 | 1006.2 |
| 20260506183046 | 16 | 157 | 1.6 | 4.8 | 0.20 | 0.25 | 0.20 | 92 | 1006.6 |
| 20260506181546 | 16 | 157 | 1.6 | 4.8 | 0.15 | 0.20 | 0.15 | 91 | 1006.6 |
| 20260506180045 | 16 | 135 | 1.6 | 9.7 | 0.10 | 0.15 | 0.10 | 89 | 1006.8 |
| 20260506174544 | 16 | 156 | 3.2 | 14.5 | 0.05 | 0.10 | 0.05 | 85 | 1006.9 |
| 20260506173048 | 17 | 177 | 6.4 | 27.4 | 0.00 | 0.05 | 0.00 | 78 | 1006.8 |
| 20260506171556 | 19 | 144 | 4.8 | 20.9 | 0.00 | 0.05 | 0.00 | 73 | 1006.5 |
| 20260506170047 | 19 | 109 | 4.8 | 12.9 | 0.00 | 0.05 | 0.00 | 70 | 1006.4 |
| 20260506164545 | 19 | 132 | 4.8 | 17.7 | 0.00 | 0.05 | 0.00 | 70 | 1006.5 |
| 20260506163041 | 20 | 132 | 4.8 | 14.5 | 0.00 | 0.05 | 0.00 | 69 | 1006.6 |
| 20260506161542 | 19 | 102 | 3.2 | 8.0 | 0.00 | 0.05 | 0.00 | 71 | 1006.8 |
| 20260506160044 | 19 | 120 | 3.2 | 11.3 | 0.00 | 0.05 | 0.00 | 75 | 1007.3 |
| 20260506154534 | 19 | 116 | 3.2 | 11.3 | 0.00 | 0.05 | 0.00 | 71 | 1007.7 |
| 20260506153032 | 19 | 127 | 4.8 | 16.1 | 0.00 | 0.05 | 0.00 | 72 | 1007.9 |
| 20260506151539 | 18 | 95 | 4.8 | 14.5 | 0.00 | 0.05 | 0.00 | 72 | 1008.1 |
| 20260506150032 | 18 | 115 | 4.8 | 11.3 | 0.00 | 0.05 | 0.00 | 73 | 1008.0 |
| 20260506144531 | 18 | 101 | 8.0 | 14.5 | 0.00 | 0.05 | 0.00 | 71 | 1008.2 |
| 20260506143031 | 19 | 95 | 6.4 | 19.3 | 0.00 | 0.05 | 0.00 | 74 | 1007.8 |
| 20260506141527 | 18 | 119 | 4.8 | 14.5 | 0.00 | 0.05 | 0.00 | 75 | 1007.9 |
| 20260506140030 | 17 | 134 | 1.6 | 6.4 | 0.00 | 0.05 | 0.00 | 79 | 1007.8 |
| 20260506134520 | 17 | 126 | 1.6 | 6.4 | 0.00 | 0.05 | 0.00 | 79 | 1008.0 |
| 20260506133026 | 16 | 144 | 1.6 | 6.4 | 0.00 | 0.05 | 0.00 | 79 | 1008.3 |
| 20260506131516 | 16 | 126 | 3.2 | 12.9 | 0.00 | 0.05 | 0.00 | 80 | 1008.4 |
| 20260506130012 | 16 | 149 | 3.2 | 9.7 | 0.00 | 0.05 | 0.00 | 80 | 1008.5 |
| 20260506124511 | 16 | 128 | 3.2 | 12.9 | 0.00 | 0.05 | 0.00 | 80 | 1008.5 |
| 20260506123009 | 16 | 94 | 4.8 | 12.9 | 0.00 | 0.05 | 0.00 | 81 | 1008.4 |
| 20260506121508 | 16 | 72 | 4.8 | 11.3 | 0.00 | 0.05 | 0.00 | 80 | 1008.4 |
| 20260506120007 | 16 | 118 | 4.8 | 11.3 | 0.00 | 0.05 | 0.00 | 80 | 1008.6 |
| 20260506114522 | 15 | 128 | 4.8 | 14.5 | 0.00 | 0.05 | 0.00 | 80 | 1008.7 |
| 20260506113005 | 15 | 130 | 3.2 | 9.7 | 0.00 | 0.05 | 0.00 | 81 | 1008.9 |
| 20260506111504 | 15 | 112 | 3.2 | 9.7 | 0.00 | 0.05 | 0.00 | 81 | 1008.8 |
| 20260506110001 | 15 | 120 | 3.2 | 11.3 | 0.00 | 0.05 | 0.00 | 82 | 1008.9 |
| 20260506104607 | 14 | 153 | 0.0 | 8.0 | 0.00 | 0.05 | 0.00 | 83 | 1009.2 |
| 20260506103058 | 13 | 107 | 1.6 | 4.8 | 0.00 | 0.05 | 0.00 | 83 | 1008.9 |
| 20260506101555 | 13 | 86 | 1.6 | 9.7 | 0.00 | 0.05 | 0.00 | 83 | 1008.7 |
| 20260506100104 | 13 | 101 | 1.6 | 8.0 | 0.00 | 0.05 | 0.00 | 83 | 1008.8 |
| 20260506094550 | 13 | 117 | 1.6 | 3.2 | 0.00 | 0.05 | 0.00 | 84 | 1008.7 |
| 20260506093048 | 12 | 117 | 3.2 | 4.8 | 0.00 | 0.05 | 0.00 | 85 | 1008.6 |
| 20260506091552 | 11 | 117 | 0.0 | 3.2 | 0.00 | 0.05 | 0.00 | 87 | 1008.6 |
| 20260506090045 | 11 | 117 | 0.0 | 3.2 | 0.00 | 0.05 | 0.00 | 88 | 1008.6 |
| 20260506084545 | 11 | 117 | 0.0 | 3.2 | 0.00 | 0.05 | 0.00 | 90 | 1008.7 |
| 20260506083044 | 11 | 117 | 1.6 | 3.2 | 0.00 | 0.05 | 0.00 | 90 | 1008.8 |
| 20260506081544 | 12 | 117 | 0.0 | 3.2 | 0.00 | 0.05 | 0.00 | 89 | 1008.8 |
| 20260506073035 | 13 | 117 | 0.0 | 0.0 | 0.00 | 0.05 | 0.00 | 81 | 1008.7 |
| 20260506071532 | 14 | 117 | 0.0 | 0.0 | 0.00 | 0.05 | 0.00 | 76 | 1008.7 |
| 20260506061529 | 14 | 117 | 0.0 | 0.0 | 0.00 | 0.05 | 0.00 | 79 | 1008.3 |
| 20260506044527 | 16 | 111 | 3.2 | 6.4 | 0.00 | 0.05 | 0.00 | 74 | 1008.5 |
| 20260506043016 | 16 | 111 | 3.2 | 6.4 | 0.00 | 0.05 | 0.00 | 75 | 1008.6 |
| 20260506041515 | 16 | 95 | 3.2 | 6.4 | 0.00 | 0.05 | 0.00 | 76 | 1008.5 |
| 20260506040011 | 16 | 94 | 1.6 | 4.8 | 0.00 | 0.05 | 0.00 | 80 | 1008.5 |
| 20260506034510 | 16 | 94 | 1.6 | 4.8 | 0.00 | 0.05 | 0.05 | 78 | 1008.3 |
| 20260506033012 | 16 | 97 | 0.0 | 4.8 | 0.00 | 0.05 | 0.05 | 79 | 1008.3 |
| 20260506031519 | 16 | 96 | 0.0 | 3.2 | 0.00 | 0.05 | 0.05 | 78 | 1008.3 |